Greenville, ME

6:06 AM EST on December 09, 2019 (GMT -0500)
Greenville

Weather History for KGNR - August, 2019

Change the Weather History Date:

Saturday, August 31, 2019

  Actual Average (WUND) Record (WUND)
Temperature  
Mean Temperature 58 °F -  
Max Temperature 66 °F - - (-1)
Min Temperature 53 °F - - (-1)
Degree Days  
Heating Degree Days 6    
Growing Degree Days 8 (Base 50)    
Moisture  
Dew Point 48 °F    
Average Humidity 67    
Maximum Humidity 86    
Minimum Humidity 52    
Precipitation  
Precipitation 0.00 in - - ()
Sea Level Pressure  
Sea Level Pressure 30.13 in    
Wind  
Wind Speed 5 mph ()    
Max Wind Speed 12 mph    
Max Gust Speed 22 mph    
Averages and records for this station are not official NWS values.
T = Trace of Precipitation, MM = Missing Value Source: Averaged Metar Reports

Daily Weather History Graph

Daily Weather History Graph

Search for Another Location

Airport or City:

Astronomy

Aug. 31, 2019 Rise Set
Actual Time 5:58 AM EDT 7:18 PM EDT
Civil Twilight 5:27 AM EDT 7:48 PM EDT
Nautical Twilight 4:50 AM EDT 8:25 PM EDT
Astronomical Twilight 4:10 AM EDT 9:05 PM EDT
Moon 7:11 AM EDT (8/31) 8:25 PM EDT (8/31)
Length of Visible Light 14h 21m
Length of Day
13h 20m
New Moon, 2% of the Moon is Illuminated
Aug 31
New Moon
Sep 5
First Quarter
Sep 14
Full
Sep 21
Last Quarter
Sep 28
New

Hourly Weather History & Observations

Time (EDT) Temp. Dew Point Humidity Pressure Visibility Wind Dir Wind Speed Gust Speed Precip Events Conditions
12:56 AM 60.1 °F 46.0 °F 60% 30.01 in - WNW 6.9 mph - N/A   Unknown
1:56 AM 59.0 °F 46.9 °F 64% 30.01 in - WNW 4.6 mph - N/A   Unknown
2:56 AM 59.0 °F 46.9 °F 64% 30.02 in - WNW 5.8 mph - N/A   Unknown
3:56 AM 55.0 °F 46.9 °F 74% 30.03 in - Calm Calm - N/A   Unknown
4:56 AM 53.1 °F 46.0 °F 77% 30.06 in - Calm Calm - N/A   Unknown
5:56 AM 53.1 °F 46.0 °F 77% 30.08 in - WNW 3.5 mph - N/A   Unknown
6:56 AM 55.0 °F 48.0 °F 77% 30.09 in - Calm Calm - N/A   Unknown
7:56 AM 60.1 °F 48.9 °F 67% 30.09 in - Variable 3.5 mph - N/A   Unknown
8:56 AM 61.0 °F 50.0 °F 67% 30.11 in - Calm Calm - N/A   Unknown
9:56 AM 62.1 °F 48.9 °F 62% 30.11 in - Variable 5.8 mph 16.1 mph N/A   Unknown
10:56 AM 62.1 °F 48.9 °F 62% 30.12 in - WNW 8.1 mph - N/A   Unknown
11:56 AM 63.0 °F 48.0 °F 58% 30.12 in - NW 10.4 mph - N/A   Unknown
12:56 PM 63.0 °F 46.9 °F 56% 30.13 in - Variable 6.9 mph 21.9 mph N/A   Unknown
1:56 PM 64.0 °F 46.9 °F 54% 30.13 in - WNW 11.5 mph 18.4 mph N/A   Unknown
2:56 PM 64.0 °F 48.9 °F 58% 30.15 in - NW 9.2 mph 18.4 mph N/A   Unknown
3:56 PM 64.0 °F 48.0 °F 56% 30.16 in - NW 11.5 mph 21.9 mph N/A   Unknown
4:56 PM 64.9 °F 46.9 °F 52% 30.17 in - WNW 10.4 mph 18.4 mph N/A   Unknown
5:56 PM 63.0 °F 48.0 °F 58% 30.18 in - NW 10.4 mph - N/A   Unknown
6:56 PM 60.1 °F 48.9 °F 67% 30.20 in - WNW 5.8 mph - N/A   Unknown
7:56 PM 57.9 °F 48.9 °F 72% 30.22 in - WNW 5.8 mph - N/A   Unknown
8:56 PM 57.0 °F 48.9 °F 74% 30.24 in - NNW 8.1 mph - N/A   Unknown
9:56 PM 55.9 °F 50.0 °F 80% 30.26 in - NW 5.8 mph - N/A   Unknown
10:56 PM 54.0 °F 50.0 °F 86% 30.26 in - NW 10.4 mph - N/A   Unknown
11:56 PM 54.0 °F 50.0 °F 86% 30.27 in - NW 9.2 mph - N/A   Unknown